Retour au catalogue

XINGYUN-2 02

ActifCommunicationsSSO
NORAD 45603·PAYLOAD·🇨🇳 China

Lancé May 12, 2020 depuis Jiuquan Satellite Launch Center

Loading…

Prochains Passages (prochaines 24 heures)

TLE

FraisSource: Space-Track

Époque: Sep 15, 2026, 00:15 UTC

1 45603U 20028B   26258.01050468  .00001681  00000-0  10201-3 0  9990
2 45603  97.5109 262.4591 0010123 330.9587  29.1079 15.11841435348402

Suivez XINGYUN-2 02 en temps réel avec AllMySat

Download on the App Store